Weather History for Stanley, ND

Change the Weather History Date:

Sunday, April 27, 2014

  Actual Average (KMOT) Record (KMOT)
Temperature  
Mean Temperature 37 °F 48 °F  
Max Temperature 42 °F 61 °F 91 °F (1910)
Min Temperature 32 °F 36 °F 10 °F (1909)
Degree Days  
Heating Degree Days 28 17  
Month to date heating degree days 605  
Since 1 July heating degree days 8320  
Cooling Degree Days 0 0  
Month to date cooling degree days 0  
Year to date cooling degree days 0  
Moisture  
Dew Point 35 °F    
Average Humidity 99    
Maximum Humidity 100    
Minimum Humidity 81    
Precipitation  
Precipitation 0.27 in 0.05 in 3.89 in (1984)
Month to date precipitation 0.97  
Year to date precipitation 2.72  
Sea Level Pressure  
Sea Level Pressure 29.65 in    
Wind  
Wind Speed 18 mph (East)    
Max Wind Speed 25 mph    
Max Gust Speed 33 mph    
Visibility 7 miles    
Events Rain , Snow    
T = Trace of Precipitation, MM = Missing Value Source: NWS Daily Summary

Daily Weather History Graph

Daily Weather History Graph

Search for Another Location

Airport:

Trip Planner

Search our weather history database for the weather conditions in past years. The results will help you decide how hot, cold, wet, or windy it might be!

Date:

Astronomy

Apr. 27, 2014 Rise Set
Actual Time 6:37 AM CDT 8:58 PM CDT
Civil Twilight 6:03 AM CDT 9:32 PM CDT
Nautical Twilight 5:20 AM CDT 10:15 PM CDT
Astronomical Twilight 4:31 AM CDT 11:05 PM CDT
Moon 5:48 AM CDT (4/27) 7:27 PM CDT (4/27)
Length of Visible Light 15h 29m
Length of Day
14h 20m
Waning Crescent, 3% of the Moon is Illuminated
Apr 27
Waning Crescent
Apr 29
New
May 6
First Quarter
May 14
Full
May 21
Last Quarter

Hourly Weather History & Observations

Time (CDT) Temp. Windchill Dew Point Humidity Pressure Visibility Wind Dir Wind Speed Gust Speed Precip Events Conditions
12:15 AM 42.8 °F 33.3 °F 39.2 °F 87% 29.69 in 10.0 mi East 24.2 mph 29.9 mph N/A   Overcast
12:35 AM 42.8 °F 33.5 °F 37.4 °F 81% 29.70 in 10.0 mi ESE 23.0 mph 33.4 mph N/A   Overcast
12:55 AM 42.8 °F 33.1 °F 37.4 °F 81% 29.70 in 10.0 mi ESE 25.3 mph 31.1 mph N/A   Overcast
1:15 AM 41.0 °F 31.4 °F 37.4 °F 87% 29.70 in 10.0 mi ESE 21.9 mph 29.9 mph N/A   Overcast
1:35 AM 41.0 °F 31.6 °F 39.2 °F 93% 29.71 in 10.0 mi ESE 20.7 mph 26.5 mph N/A   Overcast
1:55 AM 41.0 °F 31.6 °F 39.2 °F 93% 29.70 in 10.0 mi ESE 20.7 mph 31.1 mph N/A   Overcast
2:15 AM 39.2 °F 30.2 °F 39.2 °F 100% 29.69 in 10.0 mi East 17.3 mph 27.6 mph N/A   Overcast
2:35 AM 39.2 °F 29.6 °F 39.2 °F 100% 29.68 in 10.0 mi East 19.6 mph 28.8 mph N/A   Overcast
2:55 AM 39.2 °F 30.2 °F 39.2 °F 100% 29.68 in 10.0 mi East 17.3 mph 27.6 mph N/A   Overcast
3:15 AM 39.2 °F 30.2 °F 39.2 °F 100% 29.68 in 10.0 mi East 17.3 mph 27.6 mph N/A   Overcast
3:35 AM 39.2 °F 31.2 °F 39.2 °F 100% 29.67 in 10.0 mi East 13.8 mph 21.9 mph N/A   Overcast
3:55 AM 39.2 °F 30.2 °F 39.2 °F 100% 29.66 in 10.0 mi East 17.3 mph 25.3 mph N/A   Overcast
4:15 AM 37.4 °F 29.3 °F 37.4 °F 100% 29.65 in 10.0 mi East 12.7 mph 24.2 mph N/A   Overcast
4:35 AM 37.4 °F 28.5 °F 37.4 °F 100% 29.64 in 10.0 mi East 15.0 mph 25.3 mph N/A   Overcast
4:55 AM 37.4 °F 28.2 °F 37.4 °F 100% 29.64 in 10.0 mi East 16.1 mph 23.0 mph N/A   Overcast
5:15 AM 37.4 °F 26.9 °F 37.4 °F 100% 29.64 in 10.0 mi East 20.7 mph 26.5 mph N/A   Overcast
5:35 AM 37.4 °F 28.2 °F 37.4 °F 100% 29.65 in 10.0 mi East 16.1 mph 24.2 mph N/A   Overcast
5:55 AM 37.4 °F 28.5 °F 37.4 °F 100% 29.66 in 10.0 mi East 15.0 mph 23.0 mph N/A   Overcast
6:15 AM 37.4 °F 28.5 °F 37.4 °F 100% 29.66 in 2.5 mi East 15.0 mph 24.2 mph N/A   Overcast
6:35 AM 37.4 °F 27.8 °F 37.4 °F 100% 29.65 in 2.5 mi ESE 17.3 mph 24.2 mph N/A   Overcast
6:55 AM 37.4 °F 27.5 °F 37.4 °F 100% 29.65 in 2.5 mi East 18.4 mph 26.5 mph N/A   Overcast
7:15 AM 35.6 °F 24.8 °F 35.6 °F 100% 29.65 in 10.0 mi East 19.6 mph 23.0 mph N/A   Overcast
7:35 AM 35.6 °F 25.9 °F 35.6 °F 100% 29.64 in 10.0 mi East 16.1 mph 28.8 mph N/A   Overcast
7:55 AM 35.6 °F 25.9 °F 35.6 °F 100% 29.64 in 10.0 mi East 16.1 mph 24.2 mph N/A   Overcast
8:15 AM 35.6 °F 25.9 °F 35.6 °F 100% 29.64 in 10.0 mi East 16.1 mph 24.2 mph N/A   Overcast
8:35 AM 35.6 °F 25.2 °F 35.6 °F 100% 29.64 in 10.0 mi East 18.4 mph 24.2 mph N/A   Overcast
8:55 AM 35.6 °F 25.2 °F 35.6 °F 100% 29.65 in 10.0 mi East 18.4 mph 21.9 mph N/A   Overcast
9:15 AM 35.6 °F 25.9 °F 35.6 °F 100% 29.64 in 3.0 mi East 16.1 mph 26.5 mph N/A   Overcast
9:55 AM 33.8 °F 22.5 °F 33.8 °F 100% 29.63 in 8.0 mi East 19.6 mph 26.5 mph N/A   Overcast
10:15 AM 33.8 °F 21.9 °F 33.8 °F 100% 29.62 in 10.0 mi East 21.9 mph 28.8 mph N/A   Overcast
10:35 AM 33.8 °F 22.2 °F 33.8 °F 100% 29.61 in 10.0 mi East 20.7 mph 31.1 mph N/A   Overcast
10:55 AM 33.8 °F 23.5 °F 33.8 °F 100% 29.62 in 9.0 mi East 16.1 mph 23.0 mph 0.01 in Rain Light Rain
11:15 AM 33.8 °F 23.9 °F 33.8 °F 100% 29.64 in 10.0 mi East 15.0 mph 25.3 mph N/A Rain Light Rain
11:35 AM 33.8 °F 23.9 °F 33.8 °F 100% 29.64 in 8.0 mi East 15.0 mph 23.0 mph 0.01 in Rain Light Rain
11:55 AM 33.8 °F 24.3 °F 33.8 °F 100% 29.64 in 10.0 mi East 13.8 mph 20.7 mph 0.02 in Rain Light Rain
12:15 PM 35.6 °F 25.9 °F 35.6 °F 100% 29.64 in 10.0 mi East 16.1 mph 23.0 mph N/A Rain Light Rain
12:35 PM 35.6 °F 25.5 °F 35.6 °F 100% 29.63 in 10.0 mi East 17.3 mph 24.2 mph N/A Rain Light Rain
12:55 PM 35.6 °F 25.9 °F 35.6 °F 100% 29.62 in 8.0 mi East 16.1 mph 21.9 mph N/A   Overcast
1:15 PM 35.6 °F 25.5 °F 35.6 °F 100% 29.62 in 10.0 mi East 17.3 mph 25.3 mph N/A   Overcast
1:35 PM 35.6 °F 25.2 °F 35.6 °F 100% 29.63 in 10.0 mi East 18.4 mph 25.3 mph N/A   Overcast
1:55 PM 35.6 °F 25.5 °F 35.6 °F 100% 29.63 in 10.0 mi East 17.3 mph 23.0 mph N/A   Overcast
2:15 PM 33.8 °F 22.2 °F 33.8 °F 100% 29.63 in 4.0 mi East 20.7 mph 26.5 mph N/A   Overcast
2:35 PM 33.8 °F 24.3 °F 33.8 °F 100% 29.63 in 2.0 mi East 13.8 mph 26.5 mph N/A   Overcast
3:15 PM 35.6 °F 24.8 °F 35.6 °F 100% 29.63 in 2.0 mi East 19.6 mph 26.5 mph N/A   Overcast
3:35 PM 33.8 °F 24.8 °F 33.8 °F 100% 29.63 in 2.0 mi East 12.7 mph 18.4 mph N/A   Overcast
3:55 PM 33.8 °F 23.9 °F 33.8 °F 100% 29.63 in 1.2 mi East 15.0 mph 19.6 mph N/A   Overcast
4:15 PM 33.8 °F 24.8 °F 33.8 °F 100% 29.62 in 2.5 mi East 12.7 mph 19.6 mph N/A   Mostly Cloudy
4:35 PM 33.8 °F 24.3 °F 33.8 °F 100% 29.62 in 2.0 mi East 13.8 mph 18.4 mph N/A   Overcast
4:55 PM 33.8 °F 23.9 °F 33.8 °F 100% 29.62 in 1.8 mi East 15.0 mph 19.6 mph N/A   Overcast
5:15 PM 33.8 °F 23.5 °F 33.8 °F 100% 29.62 in 4.0 mi East 16.1 mph 20.7 mph N/A   Overcast
5:35 PM 33.8 °F 24.8 °F 33.8 °F 100% 29.63 in 3.0 mi East 12.7 mph 18.4 mph N/A   Overcast
5:55 PM 33.8 °F 25.3 °F 33.8 °F 100% 29.63 in 3.0 mi East 11.5 mph 18.4 mph N/A   Overcast
6:15 PM 33.8 °F 25.8 °F 33.8 °F 100% 29.64 in 2.0 mi East 10.4 mph 19.6 mph N/A   Overcast
6:35 PM 32.0 °F 23.0 °F 32.0 °F 100% 29.64 in 2.0 mi East 11.5 mph 19.6 mph N/A   Overcast
6:55 PM 32.0 °F 21.2 °F 32.0 °F 100% 29.65 in 3.0 mi East 16.1 mph 20.7 mph N/A   Overcast
7:15 PM 32.0 °F 22.5 °F 32.0 °F 100% 29.66 in 3.0 mi East 12.7 mph 20.7 mph N/A   Overcast
7:35 PM 32.0 °F 21.6 °F 32.0 °F 100% 29.67 in 2.5 mi East 15.0 mph 20.7 mph N/A   Overcast
7:55 PM 32.0 °F 22.5 °F 32.0 °F 100% 29.67 in 2.5 mi East 12.7 mph 23.0 mph N/A   Overcast
8:15 PM 32.0 °F 22.5 °F 32.0 °F 100% 29.67 in 2.5 mi East 12.7 mph 19.6 mph N/A   Overcast
8:35 PM 32.0 °F 23.6 °F 32.0 °F 100% 29.67 in 2.0 mi East 10.4 mph 17.3 mph N/A   Overcast
8:55 PM 32.0 °F 23.6 °F 32.0 °F 100% 29.67 in 2.0 mi ENE 10.4 mph 17.3 mph N/A   Overcast
9:15 PM 32.0 °F 22.5 °F 32.0 °F 100% 29.67 in 4.0 mi ENE 12.7 mph - N/A   Overcast
9:35 PM 32.0 °F 23.0 °F 32.0 °F 100% 29.68 in 9.0 mi ENE 11.5 mph 18.4 mph N/A   Overcast
9:55 PM 32.0 °F 23.6 °F 32.0 °F 100% 29.69 in 7.0 mi East 10.4 mph 16.1 mph N/A   Overcast
10:15 PM 32.0 °F 23.6 °F 32.0 °F 100% 29.69 in 4.0 mi ENE 10.4 mph 16.1 mph 0.02 in Snow Light Snow
10:35 PM 32.0 °F 25.6 °F 32.0 °F 100% 29.69 in 3.0 mi ENE 6.9 mph - 0.09 in   Overcast
10:55 PM 32.0 °F 24.8 °F 32.0 °F 100% 29.68 in 10.0 mi ENE 8.1 mph - 0.11 in Snow Light Snow
11:15 PM 32.0 °F 24.8 °F 32.0 °F 100% 29.67 in 10.0 mi ENE 8.1 mph - N/A Snow Light Snow
11:35 PM 32.0 °F 26.4 °F 32.0 °F 100% 29.66 in 7.0 mi NE 5.8 mph - 0.01 in Snow Light Snow
11:55 PM 32.0 °F 25.6 °F 32.0 °F 100% 29.65 in 3.0 mi ENE 6.9 mph - 0.13 in Snow Light Snow